KC5NAM Weather Reports


Display with metric or nautical units.
time (UTC)temp
F
wind
direction
speed
MPH
gust
MPH
rain 1hr
in
rain 24hr
in
rain mn
in
humidity
%
barometer
mb
20260505125034 71 144 7.0 14.0 0.00 0.00 0.00 92 1012.7
20260505124555 71 187 6.0 14.0 0.00 0.00 0.00 91 1012.7
20260505124035 71 144 6.0 14.0 0.00 0.00 0.00 92 1012.7
20260505123534 71 178 4.0 14.0 0.00 0.00 0.00 92 1012.6
20260505123058 71 155 4.0 12.0 0.00 0.00 0.00 92 1012.4
20260505122534 71 164 5.0 12.0 0.00 0.00 0.00 92 1012.3
20260505122035 71 168 4.0 10.0 0.00 0.00 0.00 92 1012.1
20260505121617 71 155 4.0 12.0 0.00 0.00 0.00 91 1011.9
20260505121034 71 167 5.0 12.0 0.00 0.00 0.00 91 1012.0
20260505120535 71 155 4.0 11.0 0.00 0.00 0.00 92 1011.8
20260505120051 71 158 4.0 12.0 0.00 0.00 0.00 92 1011.7
20260505115535 71 192 3.0 12.0 0.00 0.00 0.00 92 1011.7
20260505115037 71 196 4.0 11.0 0.00 0.00 0.00 92 1011.7
20260505114551 71 178 5.0 14.0 0.00 0.00 0.00 92 1011.5
20260505114034 71 209 4.0 14.0 0.00 0.00 0.00 92 1011.5
20260505113535 71 127 3.0 11.0 0.00 0.00 0.00 92 1011.6
20260505113048 71 172 4.0 13.0 0.00 0.00 0.00 92 1011.7
20260505112535 71 163 4.0 13.0 0.00 0.00 0.00 92 1011.7
20260505112035 71 180 3.0 12.0 0.00 0.00 0.00 92 1011.6
20260505111548 71 0 2.0 12.0 0.00 0.00 0.00 92 1011.6
20260505111038 71 143 3.0 11.0 0.00 0.00 0.00 92 1011.5
20260505110537 71 175 4.0 11.0 0.00 0.00 0.00 92 1011.3
20260505102034 70 171 6.0 11.0 0.00 0.00 0.00 92 1011.6
20260505101550 70 148 1.0 9.0 0.00 0.00 0.00 92 1011.6
20260505101035 70 167 3.0 9.0 0.00 0.00 0.00 92 1011.6
20260505100535 70 180 3.0 9.0 0.00 0.00 0.00 92 1011.7
20260505100123 70 188 3.0 9.0 0.00 0.00 0.00 92 1011.7
20260505095537 70 150 1.0 8.0 0.00 0.00 0.00 92 1011.7
20260505095037 70 157 2.0 8.0 0.00 0.00 0.00 92 1011.7
20260505094550 70 140 2.0 8.0 0.00 0.00 0.00 92 1011.8
20260505094034 70 151 3.0 9.0 0.00 0.00 0.00 92 1011.7
20260505093535 70 0 3.0 9.0 0.00 0.00 0.00 92 1011.5
20260505093052 70 0 3.0 12.0 0.00 0.00 0.00 92 1011.4
20260505092534 70 163 4.0 12.0 0.00 0.00 0.00 92 1011.4
20260505092035 70 140 2.0 9.0 0.00 0.00 0.00 92 1011.4
20260505091601 70 136 2.0 10.0 0.00 0.00 0.00 92 1011.5
20260505091034 70 144 3.0 10.0 0.00 0.00 0.00 92 1011.6
20260505090534 70 0 1.0 7.0 0.00 0.00 0.00 92 1011.7
20260505090056 70 146 0.0 7.0 0.00 0.00 0.00 92 1011.8
20260505085535 70 165 3.0 6.0 0.00 0.00 0.00 92 1011.7
20260505085035 70 0 0.0 4.0 0.00 0.00 0.00 92 1011.7
20260505084549 70 0 0.0 6.0 0.00 0.00 0.00 92 1011.9
20260505084037 70 0 0.0 6.0 0.00 0.00 0.00 92 1011.9
20260505083534 70 173 1.0 6.0 0.00 0.00 0.00 92 1012.1
20260505083047 69 182 2.0 6.0 0.00 0.00 0.00 92 1012.3
20260505082535 69 0 0.0 5.0 0.00 0.00 0.00 92 1012.3
20260505082035 69 0 1.0 5.0 0.00 0.00 0.00 92 1012.5
20260505081546 69 0 0.0 5.0 0.00 0.00 0.00 92 1012.5
20260505081037 69 0 0.0 5.0 0.00 0.00 0.00 92 1012.5
20260505080536 69 148 0.0 6.0 0.00 0.00 0.00 92 1012.5
20260505080049 69 0 2.0 6.0 0.00 0.00 0.00 92 1012.5
20260505075534 69 167 0.0 5.0 0.00 0.00 0.00 92 1012.7
20260505075036 69 0 0.0 6.0 0.00 0.00 0.00 92 1012.8
20260505074549 69 149 0.0 6.0 0.00 0.00 0.00 92 1012.9
20260505074037 69 0 1.0 6.0 0.00 0.00 0.00 91 1012.9
20260505073534 69 0 0.0 5.0 0.00 0.00 0.00 91 1012.9
20260505073052 69 152 1.0 5.0 0.00 0.00 0.00 91 1013.0
20260505072534 69 0 1.0 6.0 0.00 0.00 0.00 91 1012.9
20260505072034 69 177 1.0 6.0 0.00 0.00 0.00 91 1013.0
20260505071547 69 0 1.0 7.0 0.00 0.00 0.00 91 1013.1
20260505071035 69 144 1.0 7.0 0.00 0.00 0.00 91 1013.2
20260505070534 69 180 2.0 9.0 0.00 0.00 0.00 91 1013.2
20260505070047 69 165 3.0 9.0 0.00 0.00 0.00 90 1013.2
20260505065536 69 116 3.0 8.0 0.00 0.00 0.00 90 1013.3
20260505065034 69 156 2.0 9.0 0.00 0.00 0.00 90 1013.4
20260505064542 70 170 4.0 10.0 0.00 0.00 0.00 90 1013.4
20260505064037 70 156 4.0 10.0 0.00 0.00 0.00 90 1013.4
20260505063536 70 167 4.0 9.0 0.00 0.00 0.00 90 1013.5
20260505063052 70 189 4.0 12.0 0.00 0.00 0.00 89 1013.6
20260505062536 70 180 4.0 12.0 0.00 0.00 0.00 89 1013.7
20260505062036 70 194 4.0 9.0 0.00 0.00 0.00 89 1013.8
20260505061552 70 136 4.0 9.0 0.00 0.00 0.00 89 1013.8
20260505061036 70 165 3.0 10.0 0.00 0.00 0.00 89 1013.8
20260505060539 70 182 4.0 10.0 0.00 0.00 0.00 89 1014.0
20260505060046 70 162 4.0 10.0 0.00 0.00 0.00 88 1014.1
20260505055537 70 175 3.0 9.0 0.00 0.00 0.00 88 1014.0
20260505055037 70 157 4.0 12.0 0.00 0.00 0.00 88 1014.1
20260505054612 70 149 4.0 12.0 0.00 0.00 0.00 88 1014.1
20260505054037 70 146 5.0 12.0 0.00 0.00 0.00 87 1014.0
20260505053536 70 140 4.0 12.0 0.00 0.00 0.00 87 1013.9
20260505053053 70 180 4.0 12.0 0.00 0.00 0.00 87 1013.9
20260505052538 71 147 5.0 12.0 0.00 0.00 0.00 87 1013.9
20260505052038 71 168 3.0 11.0 0.00 0.00 0.00 87 1013.9
20260505051547 71 147 4.0 11.0 0.00 0.00 0.00 87 1014.0
20260505051036 71 153 6.0 11.0 0.00 0.00 0.00 86 1014.1
20260505050537 71 171 4.0 10.0 0.00 0.00 0.00 86 1014.0
20260505041600 72 0 5.0 13.0 0.00 0.00 0.00 83 1014.2
20260505041036 72 162 6.0 13.0 0.00 0.00 0.00 83 1014.2
20260505040536 73 156 6.0 12.0 0.00 0.00 0.00 83 1014.1
20260505040051 73 158 4.0 12.0 0.00 0.00 0.00 83 1014.2
20260505035537 73 152 5.0 14.0 0.00 0.00 0.00 82 1014.2
20260505035037 73 150 5.0 14.0 0.00 0.00 0.00 82 1014.1
20260505034551 73 163 6.0 12.0 0.00 0.00 0.00 82 1014.0
20260505034036 73 127 4.0 11.0 0.00 0.00 0.00 82 1014.0
20260505033535 73 161 4.0 11.0 0.00 0.00 0.00 81 1014.1
20260505033042 74 143 3.0 13.0 0.00 0.00 0.00 81 1014.2
20260505032535 74 114 6.0 13.0 0.00 0.00 0.00 81 1014.4
20260505032034 74 143 4.0 12.0 0.00 0.00 0.00 81 1014.5
20260505031543 74 128 5.0 12.0 0.00 0.00 0.00 81 1014.5
20260505031034 74 139 4.0 11.0 0.00 0.00 0.00 80 1014.6
20260505030536 74 166 5.0 11.0 0.00 0.00 0.00 80 1014.5
20260505030100 74 134 3.0 11.0 0.00 0.00 0.00 80 1014.4
20260505025534 74 184 4.0 11.0 0.00 0.00 0.00 80 1014.4
20260505025036 75 164 4.0 11.0 0.00 0.00 0.00 80 1014.2
20260505024545 75 161 4.0 10.0 0.00 0.00 0.00 80 1014.2
20260505024034 75 163 3.0 12.0 0.00 0.00 0.00 79 1014.1
20260505023534 75 153 5.0 12.0 0.00 0.00 0.00 80 1014.1
20260505023043 75 146 2.0 9.0 0.00 0.00 0.00 79 1014.1
20260505022534 75 136 2.0 9.0 0.00 0.00 0.00 79 1014.1
20260505022034 75 178 1.0 7.0 0.00 0.00 0.00 78 1014.0
20260505021551 75 0 2.0 8.0 0.00 0.00 0.00 78 1013.9
20260505021034 76 178 2.0 8.0 0.00 0.00 0.00 78 1013.8
20260505020534 76 0 3.0 8.0 0.00 0.00 0.00 77 1013.7
20260505020051 76 166 2.0 7.0 0.00 0.00 0.00 77 1013.7
20260505015534 76 0 2.0 7.0 0.00 0.00 0.00 76 1013.5
20260505015034 76 134 2.0 7.0 0.00 0.00 0.00 76 1013.4
20260505014540 76 105 1.0 7.0 0.00 0.00 0.00 76 1013.3
20260505014034 77 150 2.0 8.0 0.00 0.00 0.00 75 1013.4
20260505013536 77 146 3.0 11.0 0.00 0.00 0.00 75 1013.5
20260505013047 77 157 4.0 11.0 0.00 0.00 0.00 74 1013.4
20260505012535 77 144 3.0 9.0 0.00 0.00 0.00 74 1013.2
20260505012035 78 142 3.0 9.0 0.00 0.00 0.00 73 1013.2
20260505011542 78 103 3.0 8.0 0.00 0.00 0.00 73 1013.2
20260505011034 78 0 0.0 7.0 0.00 0.00 0.00 72 1013.1
20260505010534 79 0 1.0 7.0 0.00 0.00 0.00 72 1013.1
20260505010103 79 0 1.0 7.0 0.00 0.00 0.00 71 1013.1
20260505005535 79 156 2.0 9.0 0.00 0.00 0.00 71 1013.0
20260505005038 79 177 1.0 10.0 0.00 0.00 0.00 71 1013.1
20260505004541 79 195 3.0 10.0 0.00 0.00 0.00 70 1013.0
20260505004034 80 130 4.0 9.0 0.00 0.00 0.00 70 1013.1
20260505003535 80 175 4.0 12.0 0.00 0.00 0.00 69 1013.2
20260505003053 80 120 4.0 12.0 0.00 0.00 0.00 69 1013.3
20260505002534 80 146 2.0 11.0 0.00 0.00 0.00 69 1013.1
20260505002034 81 137 5.0 15.0 0.00 0.00 0.00 68 1013.3
20260505001545 81 113 2.0 15.0 0.00 0.00 0.00 68 1013.3
20260505001033 81 171 7.0 14.0 0.00 0.00 0.00 67 1013.2
20260505000533 81 182 4.0 14.0 0.00 0.00 0.00 67 1013.6
20260505000052 81 164 5.0 11.0 0.00 0.00 0.00 67 1013.6
20260504235538 81 167 5.0 12.0 0.00 0.00 0.00 67 1013.6
20260504235035 81 178 3.0 12.0 0.00 0.00 0.00 68 1013.7
20260504234540 82 165 2.0 11.0 0.00 0.00 0.00 68 1013.7
20260504234034 81 144 5.0 11.0 0.00 0.00 0.00 68 1013.7
20260504233534 81 104 4.0 13.0 0.00 0.00 0.00 68 1013.7
20260504233049 81 121 5.0 13.0 0.00 0.00 0.00 67 1013.9
20260504232535 82 40 5.0 13.0 0.00 0.00 0.00 66 1014.0
20260504232034 82 81 4.0 13.0 0.00 0.00 0.00 65 1014.0
20260504231538 83 107 6.0 13.0 0.00 0.00 0.00 64 1014.0
20260504231034 83 159 5.0 14.0 0.00 0.00 0.00 61 1014.1
20260504230534 83 154 5.0 14.0 0.00 0.00 0.00 60 1014.2
20260504230048 83 163 6.0 12.0 0.00 0.00 0.00 60 1014.3
20260504225533 83 163 6.0 12.0 0.00 0.00 0.00 60 1014.2
20260504225033 83 181 4.0 12.0 0.00 0.00 0.00 61 1014.2
20260504224558 83 163 6.0 12.0 0.00 0.00 0.00 60 1014.3
20260504224036 83 174 5.0 13.0 0.00 0.00 0.00 59 1014.2
20260504223535 83 145 3.0 13.0 0.00 0.00 0.00 61 1014.1
20260504223043 83 151 6.0 15.0 0.00 0.00 0.00 61 1014.2
20260504222535 83 149 7.0 16.0 0.00 0.00 0.00 59 1014.3
20260504222034 84 137 6.0 16.0 0.00 0.00 0.00 59 1014.4
20260504221541 84 142 7.0 14.0 0.00 0.00 0.00 58 1014.3
20260504221035 85 114 5.0 11.0 0.00 0.00 0.00 58 1014.3
20260504220534 84 167 5.0 13.0 0.00 0.00 0.00 60 1014.4
20260504220048 84 177 5.0 15.0 0.00 0.00 0.00 58 1014.4
20260504215533 85 159 8.0 15.0 0.00 0.00 0.00 57 1014.3
20260504215035 85 167 8.0 15.0 0.00 0.00 0.00 57 1014.5
20260504214546 85 153 6.0 12.0 0.00 0.00 0.00 59 1014.5
20260504214035 84 157 6.0 12.0 0.00 0.00 0.00 60 1014.6
20260504213535 84 169 4.0 12.0 0.00 0.00 0.00 59 1015.0
20260504213045 84 111 6.0 12.0 0.00 0.00 0.00 60 1015.0
20260504212534 84 210 5.0 12.0 0.00 0.00 0.00 60 1015.1
20260504212035 83 171 4.0 9.0 0.00 0.00 0.00 60 1015.3
20260504211543 83 161 3.0 9.0 0.00 0.00 0.00 62 1015.4
20260504211034 82 159 3.0 10.0 0.00 0.00 0.00 61 1015.4
20260504210534 82 166 5.0 15.0 0.00 0.00 0.00 61 1015.4
20260504210056 82 184 5.0 15.0 0.00 0.00 0.00 61 1015.6
20260504205535 82 172 6.0 15.0 0.00 0.00 0.00 60 1015.6
20260504205034 83 138 5.0 15.0 0.00 0.00 0.00 60 1015.7
20260504204547 83 184 5.0 12.0 0.00 0.00 0.00 60 1015.8
20260504204034 83 154 5.0 12.0 0.00 0.00 0.00 60 1015.9
20260504203534 82 146 4.0 13.0 0.00 0.00 0.00 60 1016.0
20260504203043 82 162 5.0 13.0 0.00 0.00 0.00 60 1016.1
20260504202534 83 157 7.0 12.0 0.00 0.00 0.00 59 1016.2
20260504202034 82 147 3.0 12.0 0.00 0.00 0.00 60 1016.3
20260504201547 82 174 3.0 13.0 0.00 0.00 0.00 60 1016.3
20260504201035 83 154 6.0 13.0 0.00 0.00 0.00 59 1016.3
20260504200535 83 163 6.0 13.0 0.00 0.00 0.00 59 1016.4
20260504200052 83 140 7.0 13.0 0.00 0.00 0.00 60 1016.4
20260504195534 83 169 4.0 14.0 0.00 0.00 0.00 60 1016.4
20260504195034 82 168 5.0 14.0 0.00 0.00 0.00 60 1016.4
20260504194540 83 174 4.0 11.0 0.00 0.00 0.00 60 1016.4
20260504194034 83 178 4.0 16.0 0.00 0.00 0.00 59 1016.5
20260504193535 83 172 7.0 16.0 0.00 0.00 0.00 59 1016.5
20260504193051 83 161 5.0 14.0 0.00 0.00 0.00 59 1016.6
20260504192535 83 184 3.0 14.0 0.00 0.00 0.00 60 1016.6
20260504192034 83 162 6.0 15.0 0.00 0.00 0.00 59 1016.7
20260504191605 82 153 3.0 15.0 0.00 0.00 0.00 61 1016.8
20260504191034 83 149 6.0 15.0 0.00 0.00 0.00 58 1016.9
20260504190534 83 173 7.0 12.0 0.00 0.00 0.00 58 1016.8
20260504190047 83 170 5.0 14.0 0.00 0.00 0.00 60 1016.8
20260504185534 83 165 5.0 14.0 0.00 0.00 0.00 59 1017.1
20260504185037 82 145 5.0 12.0 0.00 0.00 0.00 60 1017.3
20260504184544 82 161 5.0 12.0 0.00 0.00 0.00 59 1017.4
20260504184037 82 136 5.0 12.0 0.00 0.00 0.00 61 1017.2
20260504183535 82 196 7.0 12.0 0.00 0.00 0.00 60 1017.1
20260504183041 81 175 5.0 9.0 0.00 0.00 0.00 62 1017.3
20260504182534 81 138 5.0 12.0 0.00 0.00 0.00 62 1017.4
20260504182034 81 0 4.0 15.0 0.00 0.00 0.00 63 1017.4
20260504181540 81 171 7.0 15.0 0.00 0.00 0.00 63 1017.5
20260504181035 80 132 4.0 12.0 0.00 0.00 0.00 64 1017.5
20260504180538 80 151 5.0 13.0 0.00 0.00 0.00 63 1017.6
20260504180051 81 199 4.0 13.0 0.00 0.00 0.00 63 1017.7
20260504175536 81 202 6.0 12.0 0.00 0.00 0.00 61 1017.9
20260504175038 81 163 6.0 13.0 0.00 0.00 0.00 64 1017.9
20260504174543 80 150 7.0 13.0 0.00 0.00 0.00 62 1018.0
20260504174036 80 149 7.0 16.0 0.00 0.00 0.00 63 1018.0
20260504173537 80 194 6.0 16.0 0.00 0.00 0.00 61 1018.0
20260504173042 81 158 4.0 15.0 0.00 0.00 0.00 63 1018.0
20260504172536 80 140 6.0 15.0 0.00 0.00 0.00 63 1018.1
20260504172036 80 155 6.0 14.0 0.00 0.00 0.00 62 1018.1
20260504171540 81 252 7.0 15.0 0.00 0.00 0.00 61 1018.2
20260504171036 81 150 7.0 15.0 0.00 0.00 0.00 61 1018.1
20260504170539 81 180 7.0 15.0 0.00 0.00 0.00 62 1018.3
20260504151036 74 153 5.0 14.0 0.00 0.00 0.00 75 1019.5
20260504150536 73 118 6.0 14.0 0.00 0.00 0.00 75 1019.4
20260504141034 70 165 5.0 14.0 0.00 0.00 0.00 78 1019.5
20260504140534 70 155 5.0 12.0 0.00 0.00 0.00 77 1019.6
20260504130535 65 149 0.0 3.0 0.00 0.00 0.00 84 1019.1